Location: Barcelona
(41.3829°N, 2.1774°E)
Time: 20:27:45
(UTC+00:00)

ISS - Pass Details

Date: 08 July 2025
Orbit: 413 x 417 km, 51.6° (Epoch: 13 July)

Event Time Altitude Azimuth Distance (km) Brightness Sun altitude
Rises 22:21:44 0° 271° (W) 2,347 0.4 -22.6°
Reaches altitude 10° 22:24:09 10° 288° (WNW) 1,488 -0.5 -22.8°
Maximum altitude 22:26:49 22° 341° (NNW) 970 -1.1 -23.0°
Drops below altitude 10° 22:29:30 10° 34° (NE) 1,493 -0.6 -23.1°
Sets 22:31:55 0° 51° (NE) 2,359 0.3 -23.3°
